Change the Weather History Date:

Thursday, June 20, 2013

  Actual Average Record
Temperature  
Mean Temperature 86 °F -  
Max Temperature 102 °F 102 °F 109 °F (1968)
Min Temperature 70 °F 69 °F 57 °F (1973)
Cooling Degree Days 21    
Growing Degree Days 36 (Base 50)    
Moisture  
Dew Point 20 °F    
Average Humidity 10    
Maximum Humidity 24    
Minimum Humidity 4    
Precipitation  
Precipitation 0.00 in - - ()
Sea Level Pressure  
Sea Level Pressure 29.74 in    
Wind  
Wind Speed 8 mph (SW)    
Max Wind Speed 17 mph    
Max Gust Speed 23 mph    
Visibility 10 miles    
Events      
Averages and records for this station are not official NWS values.
T = Trace of Precipitation, MM = Missing Value Source: NWS Daily Summary

Daily Weather History Graph

Daily Weather History Graph

Search for Another Location

Airport or City:

Trip Planner

Search our weather history database for the weather conditions in past years. The results will help you decide how hot, cold, wet, or windy it might be!

Date:

Astronomy

Jun. 20, 2013 Rise Set
Actual Time 5:17 AM MST 7:33 PM MST
Civil Twilight 4:49 AM MST 8:01 PM MST
Nautical Twilight 4:14 AM MST 8:36 PM MST
Astronomical Twilight 3:36 AM MST 9:13 PM MST
Moon 4:44 PM MST (6/20) 2:39 AM MST (6/20)
Length of Visible Light 15h 12m
Length of Day
14h 15m
Waxing Gibbous, 89% of the Moon is Illuminated
Jun 20
Waxing Gibbous
Jun 23
Full
Jun 29
Last Quarter
Jul 8
New
Jul 15
First Quarter

Hourly Weather History & Observations

Time (MST) Temp. Dew Point Humidity Pressure Visibility Wind Dir Wind Speed Gust Speed Precip Events Conditions
12:58 AM 76.5 °F 25.3 °F 15% 29.69 in 10.0 mi SSE 8.1 mph - N/A   Clear
1:58 AM 74.3 °F 30.0 °F 20% 29.69 in 10.0 mi SSE 8.1 mph - N/A   Clear
2:58 AM 73.2 °F 33.8 °F 24% 29.70 in 10.0 mi SSE 8.1 mph - N/A   Clear
3:58 AM 72.0 °F 29.1 °F 20% 29.70 in 10.0 mi East 5.8 mph - N/A   Clear
4:58 AM 71.4 °F 28.8 °F 21% 29.73 in 10.0 mi ESE 4.6 mph - N/A   Clear
5:58 AM 70.3 °F 28.9 °F 21% 29.74 in 10.0 mi ESE 8.1 mph - N/A   Clear
6:58 AM 78.1 °F 27.7 °F 16% 29.75 in 10.0 mi SE 8.1 mph - N/A   Clear
7:58 AM 82.6 °F 27.5 °F 13% 29.76 in 10.0 mi SE 5.8 mph - N/A   Clear
8:58 AM 86.2 °F 21.6 °F 9% 29.77 in 10.0 mi Calm Calm - N/A   Clear
9:58 AM 89.6 °F 15.8 °F 7% 29.77 in 10.0 mi Variable 6.9 mph - N/A   Clear
10:58 AM 95.0 °F 19.4 °F 6% 29.74 in 10.0 mi Variable 3.5 mph - N/A   Clear
11:58 AM 96.8 °F 12.2 °F 4% 29.73 in 10.0 mi Variable 6.9 mph - N/A   Clear
12:58 PM 98.6 °F 8.6 °F 4% 29.69 in 10.0 mi West 10.4 mph - N/A   Clear
1:58 PM 100.6 °F 6.8 °F 4% 29.70 in 10.0 mi WSW 9.2 mph 19.6 mph N/A   Clear
2:58 PM 101.1 °F 13.8 °F 4% 29.68 in 10.0 mi SSW 13.8 mph 21.9 mph N/A   Clear
3:54 PM 102.2 °F 8.6 °F 4% 29.82 in 10.0 mi West 12.7 mph 19.6 mph N/A   Clear
3:59 PM 102.4 °F 8.2 °F 4% 29.68 in 10.0 mi West 10.4 mph 19.6 mph N/A   Clear
4:14 PM 102.2 °F 8.6 °F 4% 29.81 in 10.0 mi NW 13.8 mph - N/A   Clear
4:58 PM 101.7 °F 14.2 °F 4% 29.65 in 10.0 mi West 17.3 mph 23.0 mph N/A   Clear
5:02 PM 102.2 °F 14.0 °F 4% 29.80 in 10.0 mi WSW 16.1 mph - N/A   Clear
5:58 PM 100.6 °F 13.5 °F 4% 29.66 in 10.0 mi West 13.8 mph 20.7 mph N/A   Clear
6:58 PM 98.2 °F 16.9 °F 5% 29.66 in 10.0 mi West 11.5 mph - N/A   Clear
7:58 PM 94.3 °F 14.0 °F 5% 29.68 in 10.0 mi West 6.9 mph - N/A   Clear
8:58 PM 89.1 °F 17.8 °F 7% 29.70 in 10.0 mi West 6.9 mph - N/A   Clear
9:58 PM 87.6 °F 27.5 °F 11% 29.87 in 10.0 mi West 5.8 mph - N/A   Clear
10:58 PM 82.6 °F 27.5 °F 13% 29.89 in 10.0 mi SW 3.5 mph - N/A   Clear
11:58 PM 81.0 °F 30.2 °F 16% 29.89 in 10.0 mi SSW 4.6 mph - N/A   Clear